Location: Brotuna
(46.2000°N, 22.6000°E)
Time: 23:25:33
(UTC+00:00)

Cosmos-2242 - Pass Details

Date: 09 April 2020
Orbit: 590 x 618 km, 82.5° (Epoch: 03 June)

Event Time Altitude Azimuth Distance (km) Brightness Sun altitude
Exits shadow 20:08:40 54° 342° (NNW) 745 3.6 -27.2°
Drops below altitude 10° 20:12:10 10° 5° (N) 1,977 6.2 -27.6°
Sets 20:14:26 0° 8° (N) 2,891 7.1 -27.8°
